Location: Krasnoyarskiy Pitomnik
(51.1333°N, 71.6167°E)
Time: 06:05:12
(UTC+00:00)

CZ-2D DEB - Pass Details

Date: 12 December 2025
Orbit: 551 x 568 km, 98.3° (Epoch: 24 January)

Event Time Altitude Azimuth Distance (km) Brightness Sun altitude
Rises 01:28:50 0° 189° (S) 2,743 ? -14.5°
Reaches altitude 10° 01:31:09 10° 200° (SSW) 1,848 ? -14.2°
Maximum altitude 01:34:43 31° 263° (W) 1,005 ? -13.7°
Enters shadow 01:36:42 20° 310° (NW) 1,324 ? -13.4°
